TimeAKST,TemperatureF,Dew PointF,Humidity,Sea Level PressureIn,VisibilityMPH,Wind Direction,Wind SpeedMPH,Gust SpeedMPH,PrecipitationIn,Events,Conditions,WindDirDegrees,DateUTC
12:53 AM,34.0,33.1,96,30.41,10.0,East,5.8,-,N/A,,Partly Cloudy,90,2014-01-04 09:53:00
1:53 AM,36.0,34.0,93,30.41,10.0,Calm,Calm,-,N/A,,Partly Cloudy,0,2014-01-04 10:53:00
2:53 AM,34.0,33.1,96,30.43,10.0,Calm,Calm,-,N/A,,Scattered Clouds,0,2014-01-04 11:53:00
3:24 AM,34.0,33.1,96,30.41,10.0,ESE,5.8,-,N/A,,Mostly Cloudy,110,2014-01-04 12:24:00
3:37 AM,35.1,33.1,92,30.40,10.0,ESE,6.9,-,N/A,,Scattered Clouds,120,2014-01-04 12:37:00
3:53 AM,35.1,34.0,96,30.40,10.0,ESE,6.9,-,N/A,,Clear,110,2014-01-04 12:53:00
4:53 AM,34.0,33.1,96,30.39,10.0,East,4.6,-,N/A,,Partly Cloudy,90,2014-01-04 13:53:00
5:53 AM,35.1,34.0,96,30.37,10.0,ESE,3.5,-,N/A,,Partly Cloudy,120,2014-01-04 14:53:00
6:53 AM,35.1,34.0,96,30.38,10.0,Calm,Calm,-,N/A,,Overcast,0,2014-01-04 15:53:00
7:53 AM,37.0,34.0,89,30.37,10.0,Calm,Calm,-,N/A,,Overcast,0,2014-01-04 16:53:00
8:53 AM,35.1,34.0,96,30.36,10.0,Calm,Calm,-,N/A,,Overcast,0,2014-01-04 17:53:00
9:53 AM,36.0,35.1,97,30.35,10.0,Calm,Calm,-,N/A,,Overcast,0,2014-01-04 18:53:00
10:53 AM,37.9,35.1,89,30.37,10.0,SW,3.5,-,N/A,,Overcast,230,2014-01-04 19:53:00
11:53 AM,37.0,34.0,89,30.35,10.0,East,8.1,-,N/A,,Overcast,90,2014-01-04 20:53:00
12:53 PM,39.0,34.0,82,30.33,10.0,NNE,5.8,-,N/A,,Overcast,20,2014-01-04 21:53:00
1:53 PM,39.9,33.1,77,30.31,10.0,East,4.6,-,N/A,,Overcast,100,2014-01-04 22:53:00
2:53 PM,41.0,30.9,67,30.30,10.0,East,15.0,-,N/A,,Overcast,100,2014-01-04 23:53:00
3:53 PM,41.0,30.9,67,30.29,10.0,ESE,13.8,-,N/A,,Overcast,120,2014-01-05 00:53:00
4:53 PM,42.1,30.9,65,30.27,10.0,ESE,16.1,-,N/A,,Overcast,110,2014-01-05 01:53:00
5:53 PM,42.1,30.9,65,30.26,10.0,ESE,19.6,25.3,N/A,,Overcast,110,2014-01-05 02:53:00
6:53 PM,42.1,30.9,65,30.24,10.0,ESE,17.3,-,N/A,,Overcast,110,2014-01-05 03:53:00
7:53 PM,43.0,30.9,62,30.22,10.0,ESE,15.0,-,N/A,,Overcast,120,2014-01-05 04:53:00
8:53 PM,42.1,30.9,65,30.21,10.0,ESE,18.4,24.2,0.00,Rain,Light Rain,110,2014-01-05 05:53:00
9:53 PM,43.0,32.0,65,30.21,10.0,ESE,13.8,-,0.00,,Overcast,110,2014-01-05 06:53:00
10:53 PM,43.0,32.0,65,30.20,10.0,ESE,16.1,-,0.00,Rain,Light Rain,110,2014-01-05 07:53:00
11:53 PM,43.0,32.0,65,30.20,10.0,ESE,15.0,-,0.00,,Overcast,110,2014-01-05 08:53:00